GFSGBSN_prec_precacc24_069.txt.gz
Total_Precipitation_Accumulation
0.02 0.01 0.02 0.02 0.02 0.03 0.02 0.02 0.02 0.02 0.01 0.00 0.00 0.00 0.00 0.00 0.00 0.00 0.00 0.00 0.00 0.00 0.00 0.00 0.00 0.01 0.00 0.00 0.00 0.00 0.00 0.00 0.00 0.00 0.00 0.00 0.00 0.00 0.00 0.00 0.00 0.00 0.00 0.00 0.00 0.00 0.00
0.02 0.02 0.01 0.01 0.02 0.02 0.02 0.02 0.02 0.02 0.02 0.01 0.01 0.00 0.00 0.00 0.00 0.00 0.00 0.00 0.00 0.00 0.00 0.00 0.00 0.01 0.00 0.00 0.00 0.00 0.00 0.00 0.00 0.00 0.00 0.00 0.00 0.00 0.00 0.00 0.00 0.00 0.00 0.00 0.00 0.00 0.00
0.03 0.03 0.02 0.03 0.02 0.02 0.01 0.01 0.01 0.01 0.02 0.02 0.01 0.01 0.00 0.00 0.00 0.00 0.00 0.00 0.00 0.00 0.00 0.00 0.00 0.01 0.00 0.00 0.00 0.00 0.00 0.00 0.00 0.00 0.00 0.00 0.00 0.00 0.00 0.00 0.00 0.00 0.00 0.00 0.00 0.00 0.00
0.03 0.03 0.03 0.04 0.04 0.02 0.02 0.01 0.01 0.00 0.01 0.01 0.01 0.00 0.00 0.00 0.00 0.00 0.00 0.00 0.00 0.00 0.00 0.00 0.00 0.01 0.00 0.00 0.00 0.00 0.00 0.00 0.00 0.00 0.00 0.00 0.00 0.00 0.00 0.00 0.00 0.00 0.00 0.00 0.00 0.00 0.02
0.03 0.03 0.03 0.04 0.05 0.04 0.02 0.02 0.01 0.01 0.01 0.01 0.01 0.00 0.00 0.00 0.00 0.00 0.00 0.00 0.00 0.00 0.00 0.00 0.00 0.00 0.00 0.00 0.00 0.00 0.00 0.00 0.00 0.00 0.00 0.00 0.00 0.00 0.00 0.00 0.00 0.00 0.00 0.00 0.00 0.00 0.00
0.03 0.04 0.04 0.04 0.04 0.03 0.02 0.02 0.02 0.02 0.02 0.02 0.01 0.01 0.00 0.00 0.00 0.00 0.00 0.00 0.00 0.00 0.00 0.00 0.00 0.00 0.00 0.00 0.00 0.00 0.00 0.00 0.00 0.00 0.00 0.00 0.00 0.00 0.00 0.00 0.00 0.00 0.00 0.00 0.00 0.02 0.00
0.04 0.04 0.04 0.03 0.03 0.02 0.02 0.02 0.03 0.03 0.02 0.02 0.01 0.00 0.00 0.00 0.00 0.00 0.00 0.00 0.00 0.00 0.00 0.00 0.00 0.00 0.00 0.00 0.00 0.00 0.00 0.00 0.00 0.00 0.01 0.00 0.00 0.00 0.00 0.00 0.00 0.00 0.00 0.00 0.00 0.00 0.00
0.04 0.04 0.04 0.04 0.04 0.03 0.03 0.04 0.04 0.04 0.02 0.02 0.02 0.01 0.00 0.00 0.00 0.00 0.00 0.00 0.00 0.00 0.01 0.00 0.00 0.00 0.00 0.00 0.00 0.00 0.00 0.03 0.02 0.02 0.00 0.00 0.00 0.00 0.00 0.00 0.00 0.00 0.00 0.00 0.00 0.00 0.00
0.06 0.05 0.05 0.03 0.04 0.04 0.04 0.05 0.04 0.03 0.02 0.02 0.02 0.02 0.00 0.00 0.00 0.00 0.00 0.00 0.00 0.00 0.01 0.00 0.00 0.00 0.00 0.00 0.00 0.00 0.00 0.01 0.02 0.02 0.02 0.00 0.00 0.00 0.00 0.00 0.00 0.00 0.00 0.00 0.00 0.00 0.00
0.05 0.05 0.04 0.03 0.04 0.05 0.04 0.03 0.03 0.03 0.03 0.03 0.02 0.01 0.00 0.01 0.00 0.00 0.00 0.00 0.00 0.00 0.01 0.00 0.00 0.00 0.00 0.00 0.00 0.00 0.00 0.00 0.01 0.01 0.02 0.01 0.00 0.00 0.00 0.00 0.00 0.00 0.00 0.00 0.00 0.00 0.00
0.07 0.07 0.06 0.06 0.07 0.05 0.04 0.04 0.04 0.04 0.04 0.03 0.02 0.01 0.01 0.03 0.01 0.01 0.00 0.00 0.00 0.02 0.01 0.00 0.00 0.00 0.00 0.00 0.00 0.00 0.00 0.00 0.01 0.02 0.04 0.03 0.00 0.00 0.00 0.00 0.00 0.00 0.00 0.00 0.00 0.00 0.00
0.07 0.06 0.04 0.04 0.05 0.05 0.05 0.06 0.05 0.04 0.03 0.03 0.03 0.03 0.05 0.03 0.03 0.01 0.00 0.01 0.03 0.05 0.01 0.00 0.00 0.00 0.00 0.00 0.00 0.00 0.00 0.00 0.02 0.14 0.04 0.00 0.00 0.00 0.00 0.00 0.00 0.00 0.00 0.00 0.00 0.00 0.00
0.05 0.04 0.04 0.05 0.06 0.07 0.08 0.07 0.06 0.06 0.04 0.04 0.06 0.07 0.09 0.04 0.02 0.00 0.00 0.04 0.09 0.06 0.00 0.00 0.00 0.00 0.00 0.00 0.00 0.00 0.00 0.00 0.02 0.09 0.06 0.01 0.00 0.00 0.00 0.00 0.00 0.00 0.00 0.00 0.01 0.00 0.00
0.07 0.07 0.07 0.07 0.08 0.08 0.10 0.10 0.08 0.08 0.07 0.08 0.09 0.11 0.05 0.04 0.02 0.03 0.05 0.12 0.06 0.00 0.00 0.00 0.00 0.00 0.00 0.00 0.00 0.00 0.00 0.00 0.00 0.00 0.01 0.07 0.05 0.00 0.00 0.00 0.00 0.00 0.00 0.01 0.05 0.02 0.01
0.08 0.08 0.07 0.07 0.06 0.07 0.09 0.09 0.10 0.11 0.12 0.14 0.23 0.14 0.08 0.01 0.04 0.12 0.16 0.18 0.03 0.00 0.00 0.00 0.00 0.00 0.01 0.00 0.00 0.00 0.00 0.00 0.00 0.00 0.01 0.01 0.01 0.00 0.00 0.00 0.00 0.00 0.00 0.00 0.01 0.02 0.02
0.09 0.10 0.10 0.09 0.08 0.08 0.08 0.10 0.11 0.11 0.14 0.23 0.26 0.22 0.05 0.01 0.12 0.33 0.44 0.16 0.01 0.02 0.00 0.00 0.00 0.00 0.01 0.00 0.00 0.02 0.02 0.01 0.00 0.00 0.00 0.00 0.00 0.00 0.00 0.00 0.00 0.00 0.00 0.00 0.00 0.03 0.04
0.10 0.09 0.09 0.10 0.10 0.10 0.10 0.11 0.12 0.10 0.14 0.38 0.54 0.52 0.10 0.05 0.34 0.56 0.50 0.10 0.00 0.00 0.00 0.00 0.00 0.00 0.00 0.00 0.00 0.02 0.08 0.05 0.00 0.00 0.00 0.00 0.00 0.00 0.00 0.00 0.00 0.00 0.00 0.00 0.00 0.00 0.00
0.06 0.06 0.07 0.06 0.06 0.07 0.09 0.12 0.16 0.15 0.24 0.62 0.91 0.68 0.17 0.19 0.52 0.40 0.22 0.05 0.00 0.00 0.00 0.00 0.00 0.00 0.00 0.00 0.00 0.01 0.04 0.03 0.03 0.00 0.00 0.00 0.00 0.00 0.00 0.00 0.00 0.00 0.00 0.00 0.00 0.00 0.00
0.12 0.12 0.11 0.11 0.10 0.11 0.12 0.13 0.15 0.14 0.38 0.81 1.16 0.60 0.35 0.37 0.33 0.22 0.14 0.03 0.01 0.00 0.00 0.00 0.00 0.00 0.00 0.00 0.00 0.00 0.03 0.03 0.01 0.01 0.00 0.02 0.01 0.00 0.02 0.01 0.00 0.00 0.00 0.00 0.00 0.00 0.01
0.15 0.13 0.10 0.11 0.12 0.13 0.13 0.17 0.19 0.17 0.39 1.12 1.57 0.91 0.78 0.67 0.24 0.10 0.12 0.07 0.02 0.00 0.00 0.00 0.00 0.01 0.01 0.01 0.00 0.00 0.01 0.02 0.01 0.01 0.00 0.02 0.03 0.00 0.01 0.00 0.00 0.00 0.00 0.00 0.00 0.00 0.00
0.12 0.14 0.14 0.14 0.13 0.13 0.15 0.17 0.24 0.28 0.51 1.67 2.11 0.80 0.33 0.44 0.28 0.12 0.10 0.07 0.03 0.02 0.01 0.01 0.01 0.00 0.01 0.01 0.01 0.00 0.00 0.01 0.01 0.01 0.01 0.00 0.06 0.04 0.00 0.00 0.00 0.00 0.00 0.00 0.00 0.00 0.00
0.11 0.11 0.12 0.13 0.17 0.19 0.17 0.17 0.22 0.37 0.84 2.32 2.24 0.38 0.20 0.14 0.11 0.17 0.13 0.10 0.03 0.03 0.05 0.03 0.01 0.00 0.01 0.01 0.01 0.00 0.03 0.05 0.05 0.01 0.01 0.00 0.06 0.08 0.01 0.00 0.00 0.00 0.00 0.00 0.00 0.00 0.00
0.07 0.07 0.08 0.09 0.11 0.14 0.19 0.21 0.22 0.37 1.32 2.97 2.09 0.30 0.25 0.18 0.13 0.30 0.23 0.05 0.04 0.04 0.05 0.02 0.01 0.02 0.04 0.05 0.03 0.02 0.03 0.02 0.06 0.07 0.04 0.02 0.03 0.05 0.04 0.00 0.00 0.01 0.00 0.00 0.00 0.00 0.00
0.11 0.11 0.11 0.11 0.11 0.13 0.13 0.17 0.23 0.33 1.10 2.07 1.37 0.32 0.37 0.40 0.15 0.11 0.05 0.08 0.10 0.06 0.06 0.03 0.01 0.03 0.04 0.01 0.06 0.11 0.08 0.04 0.02 0.04 0.13 0.10 0.04 0.07 0.10 0.02 0.06 0.02 0.00 0.00 0.00 0.00 0.00
0.22 0.23 0.22 0.19 0.17 0.16 0.16 0.17 0.22 0.33 0.64 1.58 1.46 0.51 0.24 0.22 0.11 0.07 0.02 0.04 0.07 0.15 0.06 0.05 0.06 0.06 0.04 0.04 0.12 0.26 0.21 0.21 0.04 0.02 0.05 0.14 0.14 0.16 0.10 0.07 0.05 0.00 0.00 0.00 0.01 0.00 0.00
0.29 0.31 0.33 0.31 0.25 0.26 0.24 0.19 0.22 0.29 0.51 1.28 1.68 0.96 0.68 0.43 0.12 0.02 0.03 0.02 0.06 0.09 0.07 0.07 0.11 0.08 0.12 0.09 0.18 0.18 0.21 0.19 0.13 0.04 0.01 0.05 0.17 0.30 0.20 0.13 0.05 0.00 0.00 0.00 0.00 0.01 0.00
0.09 0.11 0.14 0.18 0.24 0.26 0.27 0.27 0.27 0.29 0.43 1.33 1.88 0.88 1.30 1.16 0.17 0.06 0.08 0.05 0.04 0.07 0.10 0.07 0.07 0.10 0.14 0.15 0.16 0.13 0.09 0.03 0.11 0.16 0.09 0.06 0.16 0.25 0.31 0.23 0.05 0.00 0.00 0.00 0.02 0.03 0.00
0.10 0.11 0.14 0.13 0.11 0.14 0.23 0.27 0.27 0.35 0.45 1.03 1.91 0.78 1.03 1.41 0.33 0.08 0.07 0.06 0.03 0.08 0.16 0.11 0.19 0.17 0.31 0.31 0.12 0.07 0.04 0.02 0.01 0.08 0.16 0.19 0.18 0.21 0.27 0.29 0.11 0.01 0.04 0.06 0.02 0.00 0.00
0.09 0.11 0.11 0.16 0.16 0.16 0.15 0.22 0.26 0.32 0.49 0.87 1.59 0.89 0.67 1.06 0.67 0.17 0.10 0.09 0.05 0.04 0.09 0.15 0.11 0.10 0.11 0.26 0.13 0.08 0.03 0.02 0.01 0.02 0.02 0.10 0.13 0.16 0.16 0.17 0.09 0.05 0.07 0.10 0.08 0.04 0.01

GFSGBSN_prec_precacc24_072.txt.gz
Total_Precipitation_Accumulation
0.01 0.01 0.02 0.02 0.02 0.02 0.02 0.02 0.02 0.02 0.01 0.00 0.00 0.00 0.00 0.00 0.00 0.00 0.00 0.00 0.00 0.00 0.00 0.00 0.00 0.01 0.00 0.00 0.00 0.00 0.00 0.00 0.00 0.00 0.00 0.00 0.00 0.00 0.00 0.00 0.00 0.00 0.00 0.00 0.00 0.00 0.00
0.02 0.02 0.02 0.02 0.02 0.02 0.02 0.01 0.02 0.02 0.02 0.01 0.01 0.00 0.00 0.00 0.00 0.00 0.00 0.00 0.00 0.00 0.00 0.00 0.00 0.01 0.00 0.00 0.00 0.00 0.00 0.00 0.00 0.00 0.00 0.00 0.00 0.00 0.00 0.00 0.00 0.00 0.00 0.00 0.00 0.00 0.00
0.03 0.03 0.02 0.03 0.02 0.02 0.01 0.01 0.01 0.01 0.01 0.01 0.01 0.01 0.00 0.00 0.00 0.00 0.00 0.00 0.00 0.00 0.00 0.00 0.00 0.01 0.00 0.00 0.00 0.00 0.00 0.00 0.00 0.00 0.00 0.00 0.00 0.00 0.00 0.00 0.00 0.00 0.00 0.00 0.00 0.00 0.00
0.04 0.03 0.03 0.04 0.04 0.03 0.02 0.01 0.01 0.00 0.01 0.01 0.01 0.01 0.00 0.00 0.00 0.00 0.00 0.00 0.00 0.00 0.00 0.00 0.00 0.01 0.00 0.00 0.00 0.00 0.00 0.00 0.00 0.00 0.00 0.00 0.00 0.00 0.00 0.00 0.00 0.00 0.00 0.00 0.00 0.00 0.01
0.03 0.03 0.03 0.04 0.04 0.04 0.03 0.02 0.01 0.01 0.01 0.01 0.01 0.01 0.00 0.00 0.00 0.00 0.00 0.00 0.00 0.00 0.00 0.00 0.00 0.00 0.00 0.00 0.00 0.00 0.00 0.00 0.00 0.00 0.00 0.00 0.00 0.00 0.00 0.00 0.00 0.00 0.00 0.00 0.00 0.00 0.00
0.03 0.04 0.04 0.04 0.04 0.03 0.02 0.02 0.02 0.02 0.02 0.02 0.01 0.01 0.00 0.00 0.00 0.00 0.00 0.00 0.00 0.00 0.00 0.00 0.00 0.00 0.00 0.00 0.00 0.00 0.00 0.00 0.00 0.00 0.00 0.00 0.00 0.00 0.00 0.00 0.00 0.00 0.00 0.00 0.00 0.00 0.00
0.04 0.04 0.03 0.03 0.03 0.02 0.02 0.02 0.03 0.03 0.03 0.02 0.01 0.01 0.00 0.00 0.00 0.00 0.00 0.00 0.00 0.00 0.00 0.00 0.00 0.00 0.00 0.00 0.00 0.00 0.00 0.00 0.00 0.00 0.01 0.00 0.00 0.00 0.00 0.00 0.00 0.00 0.00 0.00 0.00 0.00 0.00
0.04 0.04 0.04 0.04 0.04 0.04 0.04 0.04 0.04 0.04 0.03 0.02 0.02 0.01 0.00 0.00 0.00 0.00 0.00 0.00 0.00 0.00 0.01 0.00 0.00 0.00 0.00 0.00 0.00 0.00 0.00 0.03 0.02 0.02 0.00 0.02 0.01 0.00 0.00 0.00 0.00 0.00 0.00 0.00 0.00 0.00 0.00
0.06 0.05 0.04 0.03 0.04 0.04 0.04 0.05 0.04 0.03 0.02 0.02 0.02 0.01 0.00 0.00 0.00 0.00 0.00 0.00 0.00 0.00 0.01 0.00 0.00 0.00 0.00 0.00 0.00 0.00 0.00 0.01 0.02 0.02 0.03 0.02 0.01 0.00 0.00 0.00 0.00 0.00 0.00 0.00 0.00 0.00 0.00
0.05 0.05 0.04 0.03 0.03 0.04 0.04 0.04 0.04 0.03 0.03 0.03 0.02 0.02 0.00 0.01 0.00 0.00 0.00 0.00 0.00 0.00 0.01 0.00 0.00 0.00 0.00 0.00 0.00 0.00 0.00 0.00 0.01 0.01 0.05 0.08 0.00 0.01 0.01 0.00 0.00 0.00 0.00 0.00 0.00 0.00 0.00
0.08 0.08 0.07 0.06 0.06 0.06 0.05 0.04 0.05 0.04 0.04 0.03 0.02 0.02 0.01 0.03 0.01 0.01 0.00 0.00 0.00 0.02 0.01 0.00 0.00 0.00 0.00 0.00 0.00 0.00 0.00 0.00 0.01 0.02 0.07 0.08 0.01 0.01 0.00 0.00 0.00 0.00 0.00 0.00 0.00 0.00 0.00
0.08 0.06 0.05 0.04 0.04 0.05 0.05 0.06 0.05 0.04 0.03 0.03 0.03 0.03 0.05 0.03 0.03 0.01 0.00 0.00 0.03 0.06 0.01 0.00 0.00 0.00 0.00 0.00 0.00 0.00 0.00 0.00 0.02 0.14 0.06 0.01 0.01 0.03 0.01 0.00 0.00 0.00 0.01 0.00 0.00 0.00 0.00
0.05 0.04 0.04 0.05 0.06 0.07 0.07 0.07 0.07 0.06 0.05 0.04 0.06 0.07 0.08 0.04 0.02 0.00 0.00 0.02 0.09 0.06 0.00 0.00 0.00 0.00 0.00 0.00 0.00 0.00 0.00 0.00 0.02 0.10 0.07 0.02 0.04 0.02 0.00 0.00 0.00 0.00 0.01 0.00 0.00 0.00 0.00
0.07 0.07 0.08 0.08 0.09 0.10 0.11 0.11 0.10 0.09 0.07 0.07 0.09 0.11 0.05 0.03 0.02 0.03 0.04 0.07 0.06 0.00 0.00 0.00 0.00 0.00 0.00 0.00 0.00 0.00 0.00 0.00 0.00 0.00 0.04 0.12 0.08 0.02 0.01 0.00 0.00 0.00 0.00 0.00 0.01 0.00 0.00
0.08 0.08 0.07 0.07 0.07 0.08 0.09 0.09 0.10 0.11 0.13 0.11 0.21 0.13 0.07 0.01 0.04 0.12 0.19 0.16 0.03 0.00 0.00 0.00 0.00 0.00 0.01 0.00 0.00 0.00 0.00 0.00 0.00 0.00 0.03 0.02 0.03 0.01 0.01 0.00 0.01 0.02 0.01 0.00 0.01 0.01 0.01
0.09 0.10 0.10 0.09 0.09 0.09 0.10 0.10 0.11 0.10 0.12 0.20 0.24 0.20 0.05 0.01 0.11 0.31 0.41 0.15 0.01 0.02 0.00 0.00 0.00 0.00 0.01 0.00 0.00 0.03 0.05 0.02 0.00 0.00 0.00 0.01 0.05 0.01 0.01 0.02 0.01 0.00 0.00 0.00 0.00 0.02 0.03
0.09 0.09 0.09 0.09 0.10 0.11 0.11 0.11 0.11 0.10 0.12 0.36 0.51 0.49 0.10 0.03 0.31 0.56 0.45 0.09 0.00 0.00 0.00 0.00 0.00 0.00 0.00 0.00 0.00 0.03 0.13 0.09 0.01 0.00 0.00 0.00 0.03 0.02 0.04 0.05 0.01 0.00 0.00 0.00 0.00 0.00 0.00
0.06 0.06 0.06 0.06 0.06 0.07 0.09 0.12 0.16 0.15 0.24 0.60 0.87 0.65 0.17 0.20 0.49 0.39 0.23 0.05 0.00 0.00 0.00 0.00 0.00 0.00 0.00 0.00 0.00 0.01 0.07 0.05 0.03 0.00 0.00 0.00 0.01 0.00 0.01 0.01 0.00 0.00 0.00 0.00 0.00 0.00 0.00
0.12 0.11 0.11 0.10 0.10 0.10 0.11 0.14 0.14 0.13 0.45 0.88 1.08 0.55 0.34 0.45 0.34 0.21 0.15 0.03 0.01 0.00 0.00 0.00 0.00 0.00 0.00 0.00 0.01 0.00 0.05 0.05 0.01 0.02 0.00 0.03 0.01 0.00 0.03 0.03 0.01 0.01 0.01 0.00 0.00 0.02 0.03
0.14 0.12 0.10 0.10 0.11 0.12 0.13 0.14 0.13 0.12 0.40 1.18 1.54 0.86 0.68 0.69 0.26 0.12 0.16 0.08 0.03 0.00 0.00 0.00 0.00 0.01 0.01 0.01 0.01 0.01 0.03 0.03 0.01 0.02 0.00 0.02 0.03 0.01 0.01 0.07 0.05 0.02 0.00 0.00 0.00 0.03 0.01
0.10 0.10 0.11 0.11 0.12 0.13 0.16 0.19 0.20 0.16 0.46 1.62 1.93 0.76 0.31 0.43 0.29 0.13 0.13 0.11 0.04 0.02 0.01 0.01 0.01 0.00 0.01 0.02 0.01 0.00 0.01 0.02 0.02 0.01 0.01 0.02 0.08 0.08 0.04 0.02 0.03 0.03 0.01 0.00 0.00 0.00 0.00
0.11 0.11 0.12 0.13 0.15 0.18 0.16 0.17 0.24 0.25 0.63 2.08 1.89 0.35 0.22 0.17 0.14 0.20 0.14 0.11 0.04 0.04 0.05 0.04 0.02 0.00 0.01 0.01 0.01 0.00 0.02 0.06 0.07 0.02 0.01 0.01 0.07 0.15 0.04 0.00 0.04 0.04 0.01 0.00 0.01 0.01 0.00
0.07 0.08 0.08 0.10 0.12 0.15 0.19 0.20 0.22 0.30 0.93 2.36 1.59 0.27 0.29 0.22 0.14 0.34 0.27 0.07 0.04 0.05 0.05 0.03 0.03 0.04 0.04 0.05 0.03 0.01 0.03 0.04 0.08 0.08 0.05 0.02 0.07 0.14 0.24 0.04 0.01 0.02 0.00 0.00 0.00 0.00 0.00
0.10 0.11 0.12 0.12 0.13 0.14 0.14 0.17 0.23 0.32 0.76 1.41 0.97 0.32 0.39 0.39 0.12 0.12 0.08 0.12 0.12 0.07 0.06 0.04 0.02 0.08 0.09 0.02 0.01 0.04 0.06 0.03 0.02 0.04 0.13 0.10 0.06 0.17 0.19 0.05 0.09 0.04 0.01 0.00 0.01 0.01 0.01
0.21 0.23 0.26 0.26 0.24 0.19 0.17 0.17 0.22 0.33 0.50 0.97 1.17 0.56 0.29 0.22 0.10 0.07 0.03 0.07 0.11 0.18 0.08 0.06 0.09 0.15 0.09 0.03 0.07 0.07 0.13 0.19 0.04 0.02 0.05 0.14 0.13 0.21 0.14 0.10 0.11 0.02 0.03 0.02 0.04 0.07 0.05
0.29 0.30 0.34 0.37 0.38 0.36 0.26 0.20 0.21 0.29 0.46 0.84 1.34 0.97 0.74 0.48 0.12 0.03 0.03 0.03 0.08 0.12 0.11 0.09 0.16 0.15 0.14 0.11 0.19 0.15 0.18 0.21 0.14 0.04 0.01 0.05 0.17 0.27 0.21 0.18 0.07 0.01 0.01 0.05 0.15 0.24 0.03
0.10 0.11 0.14 0.19 0.26 0.32 0.29 0.28 0.27 0.28 0.40 0.96 1.51 0.86 1.31 1.15 0.17 0.08 0.11 0.09 0.05 0.10 0.14 0.14 0.12 0.11 0.13 0.14 0.20 0.14 0.12 0.09 0.16 0.19 0.05 0.05 0.16 0.23 0.29 0.25 0.05 0.00 0.00 0.01 0.08 0.12 0.01
0.11 0.11 0.11 0.11 0.11 0.14 0.25 0.29 0.28 0.36 0.43 0.91 1.51 0.69 1.02 1.37 0.31 0.05 0.06 0.07 0.07 0.13 0.22 0.24 0.26 0.15 0.14 0.20 0.14 0.11 0.10 0.07 0.04 0.14 0.16 0.14 0.15 0.20 0.25 0.27 0.12 0.02 0.05 0.07 0.04 0.01 0.00
0.10 0.10 0.10 0.11 0.13 0.14 0.14 0.20 0.30 0.34 0.50 0.82 1.40 0.75 0.65 1.05 0.63 0.14 0.05 0.04 0.06 0.11 0.22 0.36 0.18 0.16 0.10 0.23 0.19 0.17 0.09 0.06 0.04 0.08 0.06 0.11 0.10 0.14 0.16 0.17 0.11 0.06 0.08 0.10 0.09 0.05 0.01

GFSGBSN_prec_precacc24_075.txt.gz
Total_Precipitation_Accumulation
0.02 0.02 0.02 0.02 0.02 0.02 0.02 0.01 0.01 0.01 0.01 0.00 0.00 0.00 0.00 0.00 0.00 0.00 0.00 0.00 0.00 0.00 0.00 0.00 0.00 0.01 0.00 0.00 0.00 0.00 0.00 0.00 0.00 0.00 0.00 0.00 0.00 0.00 0.00 0.00 0.00 0.00 0.00 0.00 0.00 0.00 0.00
0.02 0.02 0.02 0.02 0.03 0.02 0.02 0.01 0.01 0.01 0.01 0.01 0.01 0.00 0.00 0.00 0.00 0.00 0.00 0.00 0.00 0.00 0.00 0.00 0.00 0.01 0.00 0.00 0.00 0.00 0.00 0.00 0.00 0.00 0.00 0.00 0.00 0.00 0.00 0.00 0.00 0.00 0.00 0.00 0.00 0.00 0.00
0.02 0.03 0.02 0.03 0.02 0.02 0.01 0.02 0.01 0.01 0.01 0.01 0.01 0.01 0.00 0.00 0.00 0.00 0.00 0.00 0.00 0.00 0.00 0.00 0.00 0.01 0.00 0.00 0.00 0.00 0.00 0.00 0.00 0.00 0.00 0.00 0.00 0.00 0.00 0.00 0.00 0.00 0.00 0.00 0.00 0.00 0.00
0.03 0.03 0.03 0.03 0.03 0.03 0.02 0.01 0.01 0.00 0.01 0.01 0.01 0.00 0.00 0.00 0.00 0.00 0.00 0.00 0.00 0.00 0.00 0.00 0.00 0.01 0.00 0.00 0.00 0.00 0.00 0.00 0.00 0.00 0.00 0.00 0.00 0.00 0.00 0.00 0.00 0.00 0.00 0.00 0.00 0.00 0.00
0.03 0.02 0.02 0.04 0.04 0.04 0.03 0.02 0.01 0.01 0.01 0.01 0.01 0.00 0.00 0.00 0.00 0.00 0.00 0.00 0.00 0.00 0.00 0.00 0.00 0.00 0.00 0.00 0.00 0.00 0.00 0.00 0.00 0.00 0.00 0.00 0.00 0.00 0.00 0.00 0.00 0.00 0.00 0.00 0.00 0.00 0.00
0.03 0.04 0.04 0.04 0.04 0.03 0.02 0.02 0.02 0.02 0.02 0.02 0.01 0.01 0.00 0.00 0.00 0.00 0.00 0.00 0.00 0.00 0.00 0.00 0.00 0.00 0.00 0.00 0.00 0.00 0.00 0.00 0.00 0.00 0.00 0.00 0.00 0.00 0.00 0.00 0.00 0.00 0.00 0.00 0.00 0.00 0.00
0.04 0.04 0.03 0.03 0.03 0.02 0.03 0.03 0.03 0.03 0.03 0.02 0.01 0.01 0.00 0.00 0.00 0.00 0.00 0.00 0.00 0.00 0.00 0.00 0.00 0.00 0.00 0.00 0.00 0.00 0.00 0.00 0.00 0.00 0.01 0.00 0.00 0.00 0.00 0.00 0.00 0.00 0.00 0.00 0.00 0.00 0.00
0.04 0.04 0.04 0.04 0.04 0.04 0.04 0.04 0.05 0.04 0.03 0.02 0.02 0.01 0.00 0.00 0.00 0.00 0.00 0.00 0.00 0.00 0.01 0.00 0.00 0.00 0.00 0.00 0.00 0.00 0.00 0.03 0.02 0.02 0.00 0.02 0.01 0.00 0.00 0.00 0.00 0.00 0.00 0.00 0.00 0.00 0.00
0.06 0.05 0.05 0.03 0.03 0.04 0.03 0.04 0.04 0.04 0.03 0.02 0.02 0.01 0.00 0.00 0.00 0.00 0.00 0.00 0.00 0.00 0.01 0.00 0.00 0.00 0.00 0.00 0.00 0.00 0.00 0.01 0.02 0.02 0.03 0.02 0.01 0.00 0.00 0.00 0.00 0.00 0.00 0.00 0.00 0.00 0.00
0.05 0.05 0.05 0.04 0.03 0.04 0.03 0.03 0.03 0.02 0.03 0.03 0.02 0.02 0.00 0.01 0.00 0.00 0.00 0.00 0.00 0.00 0.01 0.00 0.00 0.00 0.00 0.00 0.00 0.00 0.00 0.00 0.01 0.01 0.05 0.08 0.00 0.01 0.01 0.00 0.00 0.00 0.00 0.00 0.00 0.00 0.00
0.07 0.07 0.06 0.06 0.06 0.05 0.05 0.04 0.04 0.04 0.03 0.03 0.02 0.02 0.01 0.03 0.01 0.01 0.00 0.00 0.00 0.02 0.01 0.00 0.00 0.00 0.00 0.00 0.00 0.00 0.00 0.00 0.01 0.02 0.07 0.08 0.01 0.01 0.00 0.00 0.00 0.00 0.00 0.00 0.00 0.00 0.00
0.07 0.06 0.04 0.04 0.04 0.04 0.04 0.05 0.05 0.04 0.03 0.03 0.03 0.03 0.04 0.03 0.03 0.01 0.00 0.00 0.03 0.07 0.01 0.00 0.00 0.00 0.00 0.00 0.00 0.00 0.00 0.00 0.02 0.14 0.06 0.01 0.01 0.04 0.01 0.00 0.00 0.00 0.02 0.02 0.00 0.00 0.00
0.05 0.04 0.04 0.05 0.05 0.06 0.06 0.06 0.06 0.05 0.04 0.04 0.06 0.06 0.07 0.04 0.02 0.00 0.00 0.02 0.10 0.06 0.00 0.00 0.00 0.00 0.00 0.00 0.00 0.00 0.00 0.00 0.02 0.10 0.07 0.02 0.04 0.02 0.00 0.00 0.00 0.00 0.05 0.08 0.06 0.02 0.01
0.07 0.07 0.08 0.08 0.09 0.09 0.10 0.09 0.08 0.07 0.05 0.06 0.09 0.10 0.03 0.03 0.02 0.02 0.04 0.08 0.08 0.00 0.00 0.00 0.00 0.00 0.00 0.00 0.00 0.00 0.00 0.00 0.00 0.00 0.04 0.12 0.08 0.02 0.01 0.00 0.01 0.02 0.05 0.06 0.04 0.01 0.00
0.08 0.08 0.07 0.07 0.06 0.07 0.08 0.07 0.08 0.10 0.10 0.10 0.16 0.09 0.04 0.00 0.04 0.11 0.19 0.15 0.03 0.00 0.00 0.00 0.00 0.00 0.01 0.00 0.00 0.00 0.00 0.00 0.00 0.00 0.03 0.02 0.04 0.01 0.02 0.01 0.04 0.05 0.04 0.01 0.03 0.03 0.04
0.09 0.10 0.10 0.09 0.08 0.09 0.10 0.10 0.10 0.08 0.08 0.16 0.21 0.18 0.03 0.00 0.11 0.31 0.44 0.16 0.01 0.02 0.00 0.00 0.00 0.00 0.01 0.00 0.00 0.03 0.06 0.03 0.01 0.00 0.00 0.01 0.05 0.01 0.01 0.06 0.06 0.01 0.01 0.07 0.14 0.07 0.05
0.09 0.08 0.09 0.09 0.10 0.10 0.10 0.11 0.10 0.07 0.09 0.34 0.49 0.46 0.07 0.02 0.32 0.57 0.47 0.09 0.00 0.00 0.00 0.00 0.00 0.00 0.00 0.00 0.00 0.03 0.14 0.11 0.01 0.00 0.00 0.00 0.05 0.02 0.06 0.13 0.05 0.02 0.04 0.12 0.09 0.02 0.01
0.06 0.06 0.06 0.06 0.06 0.07 0.09 0.12 0.15 0.13 0.23 0.57 0.81 0.62 0.16 0.23 0.49 0.40 0.23 0.05 0.00 0.00 0.00 0.00 0.00 0.00 0.00 0.00 0.00 0.01 0.07 0.06 0.03 0.00 0.00 0.01 0.03 0.01 0.01 0.01 0.01 0.04 0.04 0.06 0.10 0.03 0.00
0.12 0.11 0.10 0.10 0.10 0.10 0.11 0.14 0.14 0.14 0.47 0.82 1.03 0.50 0.32 0.64 0.43 0.22 0.15 0.04 0.01 0.00 0.00 0.00 0.00 0.00 0.00 0.00 0.01 0.00 0.06 0.06 0.01 0.02 0.00 0.03 0.03 0.02 0.04 0.03 0.02 0.07 0.03 0.03 0.06 0.08 0.06
0.14 0.12 0.10 0.10 0.11 0.12 0.12 0.14 0.12 0.11 0.43 1.14 1.60 0.90 0.62 0.70 0.54 0.19 0.19 0.09 0.03 0.00 0.00 0.00 0.00 0.01 0.01 0.01 0.01 0.01 0.05 0.08 0.01 0.02 0.00 0.02 0.03 0.02 0.02 0.14 0.30 0.19 0.04 0.01 0.06 0.17 0.05
0.10 0.10 0.10 0.10 0.10 0.12 0.14 0.17 0.18 0.12 0.43 1.47 1.83 0.78 0.35 0.41 0.29 0.18 0.20 0.25 0.11 0.04 0.02 0.01 0.01 0.00 0.01 0.02 0.01 0.00 0.00 0.03 0.03 0.01 0.01 0.02 0.09 0.09 0.04 0.03 0.06 0.13 0.16 0.08 0.10 0.07 0.06
0.09 0.10 0.11 0.12 0.14 0.15 0.14 0.15 0.22 0.27 0.55 1.77 1.54 0.34 0.26 0.29 0.20 0.24 0.15 0.11 0.06 0.06 0.07 0.05 0.02 0.00 0.01 0.01 0.01 0.00 0.00 0.01 0.05 0.05 0.02 0.01 0.07 0.15 0.04 0.01 0.07 0.13 0.14 0.09 0.09 0.06 0.06
0.07 0.08 0.09 0.10 0.13 0.15 0.16 0.16 0.19 0.28 0.80 1.85 1.08 0.24 0.31 0.24 0.15 0.41 0.34 0.08 0.05 0.05 0.05 0.04 0.05 0.06 0.05 0.07 0.04 0.01 0.01 0.03 0.02 0.06 0.08 0.04 0.07 0.16 0.25 0.08 0.08 0.10 0.05 0.09 0.11 0.07 0.05
0.10 0.11 0.12 0.12 0.13 0.15 0.16 0.16 0.19 0.29 0.69 1.01 0.61 0.31 0.38 0.32 0.11 0.12 0.09 0.15 0.15 0.08 0.06 0.04 0.03 0.09 0.12 0.04 0.02 0.03 0.02 0.00 0.01 0.01 0.09 0.09 0.07 0.18 0.23 0.12 0.17 0.05 0.02 0.03 0.09 0.09 0.03
0.21 0.24 0.27 0.27 0.26 0.26 0.24 0.21 0.22 0.31 0.47 0.75 0.73 0.53 0.30 0.18 0.10 0.07 0.03 0.07 0.12 0.20 0.09 0.06 0.09 0.17 0.12 0.05 0.08 0.05 0.03 0.03 0.00 0.00 0.01 0.11 0.13 0.23 0.18 0.18 0.14 0.03 0.10 0.04 0.07 0.11 0.09
0.29 0.30 0.33 0.36 0.39 0.41 0.37 0.27 0.23 0.28 0.43 0.78 0.92 0.73 0.64 0.44 0.11 0.03 0.03 0.03 0.08 0.14 0.13 0.10 0.21 0.16 0.19 0.13 0.14 0.12 0.09 0.06 0.02 0.01 0.00 0.03 0.16 0.27 0.22 0.24 0.12 0.02 0.05 0.07 0.16 0.32 0.15
0.10 0.10 0.13 0.17 0.25 0.32 0.33 0.34 0.31 0.28 0.39 0.87 1.19 0.63 0.99 0.91 0.14 0.08 0.10 0.11 0.08 0.13 0.15 0.18 0.18 0.13 0.13 0.13 0.17 0.15 0.13 0.09 0.12 0.10 0.03 0.04 0.15 0.23 0.28 0.29 0.08 0.02 0.00 0.02 0.23 0.27 0.16
0.11 0.11 0.11 0.11 0.11 0.13 0.23 0.28 0.29 0.35 0.41 0.86 1.34 0.61 0.66 0.96 0.27 0.05 0.04 0.06 0.08 0.16 0.29 0.31 0.45 0.22 0.12 0.11 0.11 0.10 0.12 0.12 0.13 0.19 0.05 0.10 0.16 0.20 0.24 0.25 0.12 0.05 0.14 0.19 0.09 0.08 0.04
0.10 0.10 0.11 0.11 0.12 0.14 0.14 0.19 0.31 0.34 0.49 0.79 1.34 0.69 0.49 0.75 0.47 0.11 0.04 0.04 0.06 0.14 0.42 0.51 0.41 0.29 0.09 0.12 0.16 0.17 0.17 0.11 0.06 0.14 0.09 0.08 0.09 0.13 0.15 0.17 0.15 0.08 0.14 0.13 0.09 0.05 0.01

GFSGBSN_prec_precacc24_081.txt.gz
Total_Precipitation_Accumulation
0.01 0.01 0.02 0.02 0.02 0.02 0.02 0.02 0.01 0.01 0.01 0.00 0.00 0.00 0.00 0.00 0.00 0.00 0.00 0.00 0.00 0.00 0.00 0.00 0.00 0.00 0.00 0.00 0.00 0.00 0.00 0.00 0.00 0.00 0.00 0.00 0.00 0.00 0.00 0.00 0.00 0.00 0.00 0.00 0.00 0.00 0.00
0.01 0.02 0.02 0.02 0.02 0.02 0.02 0.01 0.01 0.01 0.01 0.01 0.01 0.00 0.00 0.00 0.00 0.00 0.00 0.00 0.00 0.00 0.00 0.00 0.00 0.00 0.00 0.00 0.00 0.00 0.00 0.00 0.00 0.00 0.00 0.00 0.00 0.00 0.00 0.00 0.00 0.00 0.00 0.00 0.00 0.00 0.00
0.02 0.02 0.02 0.02 0.02 0.02 0.01 0.02 0.01 0.01 0.01 0.01 0.01 0.01 0.00 0.00 0.00 0.00 0.00 0.00 0.00 0.00 0.00 0.00 0.00 0.00 0.00 0.00 0.00 0.00 0.00 0.00 0.00 0.00 0.00 0.00 0.00 0.00 0.00 0.00 0.00 0.00 0.00 0.00 0.00 0.00 0.00
0.03 0.02 0.02 0.03 0.03 0.02 0.02 0.02 0.01 0.01 0.01 0.01 0.01 0.01 0.00 0.00 0.00 0.00 0.00 0.00 0.00 0.00 0.00 0.00 0.00 0.00 0.00 0.00 0.00 0.00 0.00 0.00 0.00 0.00 0.00 0.00 0.00 0.00 0.00 0.00 0.00 0.00 0.00 0.00 0.00 0.00 0.00
0.02 0.01 0.02 0.03 0.04 0.03 0.03 0.02 0.01 0.02 0.02 0.01 0.01 0.01 0.00 0.00 0.00 0.00 0.00 0.00 0.00 0.00 0.00 0.00 0.00 0.00 0.00 0.00 0.00 0.00 0.00 0.00 0.00 0.00 0.00 0.00 0.00 0.00 0.00 0.00 0.00 0.00 0.00 0.00 0.00 0.00 0.00
0.02 0.03 0.03 0.03 0.03 0.02 0.01 0.02 0.02 0.02 0.02 0.01 0.01 0.00 0.00 0.00 0.00 0.00 0.00 0.00 0.00 0.00 0.00 0.00 0.00 0.00 0.00 0.00 0.00 0.00 0.00 0.00 0.00 0.00 0.00 0.00 0.00 0.00 0.00 0.00 0.00 0.00 0.00 0.00 0.00 0.00 0.00
0.03 0.03 0.02 0.02 0.02 0.02 0.03 0.03 0.03 0.03 0.02 0.01 0.01 0.01 0.00 0.00 0.00 0.00 0.00 0.00 0.00 0.00 0.00 0.00 0.00 0.00 0.00 0.00 0.00 0.00 0.00 0.00 0.00 0.00 0.01 0.00 0.00 0.00 0.00 0.00 0.00 0.00 0.00 0.00 0.00 0.00 0.00
0.03 0.03 0.03 0.04 0.04 0.04 0.04 0.04 0.04 0.03 0.02 0.01 0.01 0.01 0.00 0.00 0.00 0.00 0.00 0.00 0.00 0.00 0.01 0.00 0.00 0.00 0.00 0.00 0.00 0.00 0.00 0.03 0.02 0.02 0.00 0.02 0.01 0.00 0.00 0.00 0.00 0.00 0.00 0.00 0.00 0.00 0.00
0.05 0.04 0.04 0.02 0.03 0.03 0.03 0.02 0.03 0.03 0.02 0.02 0.02 0.01 0.00 0.00 0.00 0.00 0.00 0.00 0.00 0.00 0.01 0.00 0.00 0.00 0.00 0.00 0.00 0.00 0.00 0.01 0.02 0.02 0.03 0.02 0.01 0.00 0.00 0.00 0.00 0.00 0.00 0.00 0.00 0.00 0.00
0.04 0.04 0.04 0.04 0.03 0.03 0.03 0.03 0.03 0.02 0.02 0.02 0.01 0.01 0.00 0.01 0.00 0.00 0.00 0.00 0.00 0.00 0.01 0.00 0.00 0.00 0.00 0.00 0.00 0.00 0.00 0.00 0.01 0.01 0.05 0.08 0.00 0.01 0.01 0.00 0.00 0.00 0.00 0.00 0.00 0.00 0.00
0.06 0.06 0.05 0.05 0.05 0.05 0.04 0.03 0.02 0.02 0.02 0.02 0.02 0.01 0.01 0.04 0.01 0.01 0.00 0.00 0.00 0.02 0.01 0.00 0.00 0.00 0.00 0.00 0.00 0.00 0.00 0.00 0.01 0.02 0.07 0.08 0.01 0.01 0.00 0.00 0.00 0.00 0.00 0.00 0.00 0.00 0.00
0.05 0.04 0.04 0.04 0.04 0.03 0.02 0.03 0.03 0.03 0.03 0.02 0.01 0.01 0.04 0.02 0.03 0.01 0.00 0.00 0.02 0.06 0.01 0.00 0.00 0.00 0.00 0.00 0.00 0.00 0.00 0.00 0.02 0.14 0.06 0.01 0.01 0.04 0.01 0.00 0.00 0.00 0.02 0.02 0.00 0.01 0.01
0.04 0.03 0.04 0.04 0.04 0.04 0.04 0.04 0.04 0.03 0.02 0.02 0.03 0.03 0.05 0.04 0.02 0.00 0.00 0.01 0.07 0.06 0.00 0.00 0.00 0.00 0.00 0.00 0.00 0.00 0.00 0.00 0.02 0.10 0.07 0.02 0.04 0.02 0.00 0.00 0.00 0.00 0.07 0.13 0.08 0.03 0.02
0.06 0.07 0.07 0.07 0.08 0.08 0.08 0.08 0.06 0.04 0.03 0.04 0.06 0.06 0.01 0.03 0.02 0.02 0.05 0.06 0.07 0.00 0.00 0.00 0.00 0.00 0.00 0.00 0.00 0.00 0.00 0.00 0.00 0.00 0.04 0.12 0.08 0.02 0.01 0.00 0.01 0.02 0.08 0.11 0.08 0.03 0.00
0.07 0.06 0.06 0.07 0.06 0.06 0.06 0.05 0.05 0.06 0.06 0.07 0.09 0.03 0.02 0.00 0.04 0.11 0.25 0.18 0.02 0.00 0.00 0.00 0.00 0.01 0.03 0.01 0.00 0.00 0.00 0.00 0.00 0.00 0.03 0.02 0.04 0.01 0.02 0.01 0.06 0.11 0.10 0.03 0.18 0.10 0.05
0.09 0.09 0.09 0.09 0.07 0.07 0.07 0.06 0.05 0.04 0.04 0.13 0.12 0.11 0.02 0.00 0.11 0.31 0.48 0.17 0.00 0.02 0.00 0.00 0.00 0.03 0.05 0.02 0.01 0.03 0.07 0.04 0.01 0.00 0.00 0.01 0.05 0.01 0.01 0.07 0.09 0.07 0.12 0.21 0.32 0.19 0.10
0.09 0.08 0.09 0.09 0.09 0.09 0.09 0.07 0.06 0.05 0.07 0.24 0.21 0.24 0.03 0.02 0.31 0.60 0.50 0.09 0.00 0.00 0.00 0.00 0.00 0.06 0.06 0.02 0.01 0.03 0.18 0.14 0.02 0.00 0.00 0.00 0.05 0.02 0.07 0.13 0.08 0.10 0.18 0.27 0.19 0.05 0.07
0.05 0.06 0.06 0.05 0.05 0.06 0.07 0.10 0.11 0.13 0.22 0.24 0.30 0.34 0.14 0.27 0.48 0.42 0.23 0.05 0.00 0.00 0.00 0.00 0.00 0.02 0.09 0.02 0.01 0.01 0.08 0.09 0.05 0.01 0.00 0.01 0.04 0.01 0.01 0.01 0.02 0.10 0.12 0.17 0.25 0.09 0.01
0.11 0.10 0.10 0.10 0.09 0.09 0.10 0.12 0.12 0.15 0.42 0.41 0.45 0.25 0.25 0.69 0.69 0.31 0.16 0.04 0.02 0.00 0.00 0.00 0.00 0.01 0.03 0.03 0.03 0.01 0.07 0.06 0.01 0.02 0.00 0.03 0.03 0.02 0.04 0.04 0.05 0.11 0.05 0.13 0.25 0.19 0.10
0.13 0.12 0.10 0.09 0.09 0.10 0.10 0.11 0.11 0.13 0.41 0.62 0.97 0.62 0.35 0.63 0.60 0.34 0.30 0.13 0.03 0.00 0.00 0.00 0.00 0.01 0.02 0.04 0.02 0.01 0.06 0.09 0.01 0.02 0.00 0.02 0.03 0.02 0.02 0.19 0.48 0.40 0.25 0.27 0.39 0.45 0.10
0.09 0.09 0.07 0.07 0.07 0.09 0.11 0.15 0.18 0.20 0.41 0.75 1.01 0.59 0.32 0.41 0.36 0.33 0.36 0.41 0.18 0.05 0.03 0.01 0.01 0.00 0.02 0.05 0.03 0.00 0.01 0.05 0.03 0.01 0.01 0.02 0.09 0.09 0.04 0.03 0.08 0.17 0.18 0.20 0.32 0.23 0.15
0.07 0.07 0.07 0.08 0.10 0.12 0.13 0.15 0.19 0.30 0.48 1.00 0.82 0.26 0.28 0.38 0.40 0.64 0.45 0.35 0.21 0.14 0.14 0.12 0.06 0.03 0.03 0.04 0.02 0.00 0.00 0.02 0.06 0.04 0.02 0.02 0.07 0.15 0.04 0.01 0.07 0.14 0.15 0.11 0.15 0.10 0.09
0.06 0.07 0.07 0.07 0.09 0.10 0.11 0.14 0.18 0.30 0.52 0.96 0.55 0.20 0.35 0.25 0.17 0.47 0.52 0.36 0.37 0.37 0.18 0.06 0.10 0.07 0.06 0.09 0.05 0.01 0.01 0.03 0.02 0.05 0.06 0.08 0.12 0.16 0.25 0.08 0.08 0.10 0.05 0.14 0.13 0.11 0.07
0.07 0.08 0.08 0.09 0.10 0.13 0.14 0.15 0.19 0.28 0.42 0.51 0.37 0.26 0.37 0.25 0.11 0.12 0.10 0.21 0.30 0.21 0.30 0.11 0.09 0.12 0.14 0.04 0.01 0.01 0.00 0.00 0.01 0.00 0.01 0.01 0.05 0.15 0.19 0.13 0.19 0.08 0.05 0.22 0.34 0.27 0.09
0.20 0.23 0.25 0.26 0.27 0.27 0.25 0.23 0.23 0.27 0.33 0.46 0.41 0.38 0.29 0.17 0.10 0.07 0.04 0.08 0.13 0.22 0.10 0.07 0.17 0.22 0.14 0.06 0.08 0.05 0.03 0.03 0.00 0.00 0.00 0.00 0.01 0.11 0.11 0.16 0.14 0.08 0.26 0.33 0.60 0.55 0.28
0.28 0.30 0.34 0.36 0.39 0.42 0.38 0.31 0.29 0.30 0.34 0.50 0.45 0.38 0.42 0.37 0.08 0.03 0.03 0.04 0.09 0.16 0.16 0.11 0.27 0.19 0.20 0.13 0.14 0.12 0.09 0.06 0.02 0.01 0.00 0.00 0.01 0.04 0.07 0.14 0.13 0.06 0.11 0.26 0.45 0.86 0.74
0.09 0.09 0.11 0.16 0.25 0.32 0.33 0.36 0.33 0.31 0.39 0.56 0.53 0.30 0.57 0.55 0.08 0.08 0.10 0.11 0.08 0.14 0.17 0.20 0.21 0.15 0.13 0.13 0.17 0.15 0.13 0.09 0.12 0.10 0.02 0.01 0.03 0.05 0.07 0.12 0.04 0.03 0.04 0.17 0.70 0.67 0.59
0.09 0.10 0.10 0.10 0.10 0.11 0.20 0.28 0.29 0.36 0.43 0.73 0.68 0.22 0.39 0.56 0.15 0.04 0.04 0.06 0.08 0.17 0.35 0.33 0.48 0.28 0.14 0.11 0.11 0.10 0.12 0.12 0.15 0.25 0.10 0.02 0.05 0.04 0.05 0.08 0.04 0.11 0.21 0.48 0.53 0.47 0.33
0.09 0.09 0.10 0.10 0.12 0.14 0.11 0.13 0.27 0.33 0.49 0.72 0.90 0.37 0.31 0.51 0.24 0.07 0.02 0.03 0.05 0.14 0.43 0.56 0.47 0.51 0.47 0.21 0.18 0.18 0.17 0.14 0.10 0.23 0.23 0.15 0.03 0.04 0.02 0.07 0.15 0.09 0.17 0.33 0.32 0.30 0.12

GFSGBSN_prec_precacc24_084.txt.gz
Total_Precipitation_Accumulation
0.01 0.01 0.02 0.01 0.01 0.02 0.02 0.01 0.01 0.01 0.01 0.00 0.00 0.00 0.00 0.00 0.00 0.00 0.00 0.00 0.00 0.00 0.00 0.00 0.00 0.00 0.00 0.00 0.00 0.00 0.00 0.00 0.00 0.00 0.00 0.00 0.00 0.00 0.00 0.00 0.00 0.00 0.00 0.00 0.00 0.00 0.00
0.01 0.01 0.02 0.01 0.02 0.02 0.01 0.01 0.01 0.01 0.01 0.01 0.01 0.00 0.00 0.00 0.00 0.00 0.00 0.00 0.00 0.00 0.00 0.00 0.00 0.00 0.00 0.00 0.00 0.00 0.00 0.00 0.00 0.00 0.00 0.00 0.00 0.00 0.00 0.00 0.00 0.00 0.00 0.00 0.00 0.00 0.00
0.02 0.02 0.02 0.02 0.02 0.01 0.01 0.02 0.01 0.01 0.01 0.01 0.01 0.01 0.00 0.00 0.00 0.00 0.00 0.00 0.00 0.00 0.00 0.00 0.00 0.00 0.00 0.00 0.00 0.00 0.00 0.00 0.00 0.00 0.00 0.00 0.00 0.00 0.00 0.00 0.00 0.00 0.00 0.00 0.00 0.00 0.00
0.03 0.02 0.02 0.02 0.03 0.02 0.02 0.02 0.01 0.01 0.02 0.02 0.01 0.01 0.00 0.00 0.00 0.00 0.00 0.00 0.00 0.00 0.00 0.00 0.00 0.00 0.00 0.00 0.00 0.00 0.00 0.00 0.00 0.00 0.00 0.00 0.00 0.00 0.00 0.00 0.00 0.00 0.00 0.00 0.00 0.00 0.00
0.02 0.01 0.02 0.03 0.03 0.03 0.02 0.01 0.01 0.01 0.01 0.01 0.01 0.01 0.00 0.00 0.00 0.00 0.00 0.00 0.00 0.00 0.00 0.00 0.00 0.00 0.00 0.00 0.00 0.00 0.00 0.00 0.00 0.00 0.00 0.00 0.00 0.00 0.00 0.00 0.00 0.00 0.00 0.00 0.00 0.00 0.00
0.03 0.03 0.03 0.02 0.02 0.02 0.02 0.02 0.03 0.02 0.02 0.01 0.01 0.00 0.00 0.00 0.00 0.00 0.00 0.00 0.00 0.00 0.00 0.00 0.00 0.00 0.00 0.00 0.00 0.00 0.00 0.00 0.00 0.00 0.00 0.00 0.00 0.00 0.00 0.00 0.00 0.00 0.00 0.00 0.00 0.00 0.00
0.03 0.02 0.02 0.02 0.02 0.02 0.03 0.04 0.03 0.02 0.02 0.01 0.01 0.00 0.00 0.00 0.00 0.00 0.00 0.00 0.00 0.00 0.00 0.00 0.00 0.00 0.00 0.00 0.00 0.00 0.00 0.00 0.00 0.00 0.01 0.00 0.00 0.00 0.00 0.00 0.00 0.00 0.00 0.00 0.00 0.00 0.00
0.02 0.03 0.03 0.03 0.03 0.03 0.03 0.03 0.03 0.02 0.02 0.01 0.01 0.01 0.00 0.00 0.00 0.00 0.00 0.00 0.00 0.00 0.00 0.00 0.00 0.00 0.00 0.00 0.00 0.00 0.00 0.03 0.02 0.02 0.00 0.02 0.01 0.00 0.00 0.00 0.00 0.00 0.00 0.00 0.00 0.00 0.00
0.04 0.04 0.03 0.02 0.02 0.03 0.02 0.02 0.02 0.03 0.02 0.02 0.01 0.01 0.00 0.00 0.00 0.00 0.00 0.00 0.00 0.00 0.00 0.00 0.00 0.00 0.00 0.00 0.00 0.00 0.00 0.01 0.02 0.02 0.03 0.02 0.01 0.00 0.00 0.00 0.00 0.00 0.00 0.00 0.00 0.00 0.00
0.04 0.03 0.03 0.03 0.02 0.03 0.02 0.02 0.02 0.02 0.02 0.02 0.01 0.01 0.00 0.00 0.00 0.00 0.00 0.00 0.00 0.00 0.01 0.00 0.00 0.00 0.00 0.00 0.00 0.00 0.00 0.00 0.01 0.01 0.05 0.08 0.00 0.01 0.01 0.00 0.00 0.00 0.00 0.00 0.00 0.00 0.00
0.06 0.05 0.04 0.04 0.04 0.04 0.04 0.03 0.02 0.02 0.02 0.02 0.02 0.01 0.01 0.03 0.01 0.01 0.00 0.00 0.00 0.01 0.01 0.00 0.00 0.00 0.00 0.00 0.00 0.00 0.00 0.00 0.01 0.02 0.07 0.08 0.01 0.01 0.00 0.00 0.00 0.00 0.00 0.00 0.00 0.00 0.00
0.04 0.04 0.03 0.03 0.03 0.03 0.02 0.02 0.03 0.03 0.03 0.02 0.01 0.01 0.03 0.01 0.03 0.01 0.00 0.00 0.01 0.04 0.01 0.00 0.00 0.00 0.00 0.00 0.00 0.00 0.00 0.00 0.02 0.14 0.06 0.01 0.01 0.04 0.01 0.00 0.00 0.00 0.02 0.02 0.00 0.01 0.01
0.03 0.02 0.02 0.03 0.03 0.04 0.04 0.04 0.03 0.03 0.02 0.02 0.02 0.03 0.03 0.03 0.02 0.00 0.00 0.01 0.04 0.03 0.00 0.00 0.00 0.00 0.00 0.00 0.00 0.00 0.00 0.00 0.02 0.10 0.07 0.02 0.04 0.02 0.00 0.00 0.00 0.00 0.07 0.13 0.08 0.04 0.02
0.05 0.06 0.06 0.07 0.08 0.08 0.09 0.07 0.05 0.04 0.02 0.02 0.04 0.04 0.01 0.02 0.02 0.02 0.05 0.06 0.05 0.00 0.00 0.00 0.00 0.00 0.00 0.00 0.00 0.00 0.00 0.00 0.00 0.00 0.04 0.12 0.08 0.02 0.01 0.00 0.01 0.02 0.08 0.11 0.09 0.03 0.00
0.06 0.06 0.05 0.06 0.06 0.06 0.05 0.04 0.04 0.05 0.05 0.05 0.05 0.01 0.01 0.00 0.04 0.11 0.25 0.18 0.01 0.00 0.00 0.00 0.00 0.01 0.03 0.04 0.02 0.00 0.00 0.00 0.00 0.00 0.03 0.02 0.04 0.01 0.02 0.01 0.06 0.11 0.11 0.03 0.21 0.12 0.07
0.08 0.08 0.08 0.08 0.07 0.07 0.06 0.05 0.04 0.04 0.05 0.10 0.08 0.06 0.01 0.00 0.10 0.29 0.47 0.17 0.00 0.01 0.00 0.00 0.00 0.04 0.08 0.05 0.05 0.04 0.08 0.04 0.01 0.00 0.00 0.01 0.05 0.01 0.01 0.07 0.09 0.07 0.14 0.25 0.36 0.20 0.11
0.08 0.07 0.08 0.08 0.09 0.09 0.09 0.07 0.06 0.04 0.08 0.18 0.15 0.15 0.01 0.02 0.24 0.53 0.46 0.08 0.00 0.00 0.00 0.00 0.01 0.06 0.09 0.10 0.09 0.05 0.20 0.16 0.02 0.00 0.00 0.00 0.05 0.02 0.07 0.13 0.08 0.11 0.19 0.29 0.26 0.09 0.08
0.05 0.05 0.06 0.05 0.05 0.06 0.07 0.09 0.09 0.10 0.20 0.18 0.22 0.20 0.09 0.26 0.33 0.31 0.20 0.04 0.00 0.00 0.00 0.00 0.00 0.03 0.10 0.09 0.10 0.13 0.17 0.11 0.06 0.01 0.01 0.01 0.04 0.01 0.01 0.01 0.02 0.10 0.13 0.18 0.31 0.14 0.03
0.10 0.10 0.10 0.10 0.09 0.08 0.09 0.12 0.11 0.14 0.39 0.34 0.34 0.10 0.15 0.66 0.62 0.27 0.16 0.05 0.02 0.00 0.00 0.00 0.00 0.02 0.05 0.07 0.16 0.10 0.22 0.10 0.07 0.04 0.01 0.03 0.03 0.02 0.04 0.04 0.06 0.13 0.07 0.16 0.31 0.30 0.20
0.13 0.11 0.10 0.10 0.10 0.09 0.09 0.09 0.09 0.13 0.40 0.53 0.71 0.45 0.15 0.44 0.57 0.35 0.30 0.13 0.04 0.00 0.00 0.00 0.00 0.01 0.02 0.05 0.09 0.12 0.17 0.15 0.03 0.02 0.00 0.02 0.03 0.02 0.02 0.19 0.48 0.40 0.25 0.27 0.40 0.48 0.12
0.09 0.09 0.08 0.07 0.07 0.08 0.10 0.12 0.16 0.20 0.40 0.61 0.74 0.39 0.25 0.31 0.30 0.37 0.46 0.44 0.18 0.06 0.03 0.01 0.01 0.01 0.02 0.06 0.08 0.05 0.08 0.09 0.04 0.01 0.01 0.02 0.09 0.09 0.04 0.03 0.08 0.17 0.18 0.20 0.32 0.23 0.15
0.07 0.07 0.07 0.07 0.09 0.10 0.10 0.12 0.17 0.27 0.45 0.75 0.54 0.18 0.23 0.37 0.40 0.67 0.46 0.39 0.28 0.18 0.20 0.13 0.07 0.03 0.04 0.04 0.05 0.05 0.02 0.03 0.07 0.04 0.02 0.02 0.07 0.15 0.04 0.01 0.07 0.14 0.15 0.11 0.15 0.10 0.09
0.06 0.07 0.06 0.06 0.07 0.07 0.07 0.10 0.16 0.26 0.42 0.63 0.38 0.15 0.34 0.22 0.17 0.46 0.50 0.39 0.45 0.54 0.27 0.07 0.12 0.08 0.07 0.10 0.06 0.03 0.02 0.04 0.02 0.05 0.06 0.08 0.12 0.16 0.25 0.08 0.08 0.10 0.05 0.14 0.14 0.11 0.07
0.06 0.07 0.07 0.06 0.07 0.09 0.10 0.11 0.16 0.28 0.34 0.34 0.28 0.21 0.33 0.19 0.10 0.11 0.10 0.23 0.34 0.35 0.70 0.20 0.12 0.15 0.16 0.08 0.03 0.01 0.00 0.00 0.01 0.00 0.01 0.01 0.05 0.15 0.19 0.13 0.18 0.08 0.05 0.22 0.36 0.28 0.11
0.18 0.20 0.22 0.23 0.24 0.23 0.22 0.20 0.19 0.24 0.30 0.37 0.30 0.34 0.29 0.15 0.07 0.06 0.04 0.09 0.15 0.39 0.24 0.26 0.32 0.28 0.15 0.06 0.08 0.05 0.03 0.03 0.00 0.00 0.00 0.00 0.01 0.11 0.11 0.15 0.14 0.08 0.26 0.33 0.66 0.58 0.31
0.26 0.27 0.31 0.33 0.36 0.36 0.32 0.26 0.22 0.24 0.32 0.47 0.37 0.29 0.40 0.35 0.07 0.02 0.03 0.04 0.08 0.23 0.18 0.11 0.33 0.24 0.20 0.13 0.14 0.11 0.09 0.06 0.02 0.01 0.00 0.00 0.00 0.04 0.06 0.15 0.13 0.06 0.11 0.26 0.46 0.88 0.89
0.08 0.09 0.11 0.16 0.24 0.31 0.31 0.31 0.25 0.20 0.32 0.52 0.46 0.23 0.42 0.45 0.06 0.07 0.10 0.10 0.08 0.15 0.17 0.20 0.21 0.15 0.13 0.13 0.16 0.14 0.12 0.09 0.12 0.10 0.02 0.01 0.02 0.05 0.07 0.12 0.04 0.03 0.06 0.19 0.79 0.79 0.89
0.09 0.09 0.09 0.09 0.10 0.11 0.21 0.28 0.26 0.28 0.34 0.59 0.45 0.16 0.28 0.37 0.08 0.02 0.04 0.06 0.08 0.17 0.35 0.33 0.48 0.28 0.15 0.11 0.11 0.10 0.12 0.12 0.15 0.25 0.10 0.02 0.05 0.04 0.05 0.09 0.05 0.11 0.23 0.52 0.68 0.69 0.71
0.07 0.08 0.08 0.09 0.11 0.13 0.11 0.13 0.27 0.32 0.45 0.58 0.57 0.22 0.16 0.32 0.18 0.06 0.02 0.03 0.05 0.14 0.43 0.55 0.46 0.53 0.55 0.30 0.22 0.18 0.17 0.14 0.10 0.23 0.24 0.16 0.04 0.06 0.04 0.08 0.18 0.10 0.18 0.36 0.47 0.45 0.36